P/2011 W2 ( Rinner )

Japanese version
Home page
Updated on February 10, 2013

---------------------------------------------------------------------

* Profile

Discovery Date November 28, 2011
Magnitude 17.9 mag
Discoverer Claudine Rinner (Ottmarsheim, France)

* Pictures

* Orbital Elements

Epoch 2011 Nov. 15.0 TT = JDT 2455880.5
T 2011 Nov. 6.18899 TT                                  MPC
q   2.3030550            (2000.0)            P               Q
n   0.13311412     Peri.  221.05869     -0.03877397     -0.98146794
a   3.7988601      Node   232.01739     +0.96770152     +0.00993525
e   0.3937511      Incl.   13.77389     +0.24909906     -0.19136870
P   7.40
From 585 observations 2011 Nov. 28-2012 Mar. 24, mean residual 0".5.

* Magnitudes Graph

        m1 = 5.0 + 5 log d + 30.0 log r

---------------------------------------------------------------------

The orbital elements are published on M.P.E.C. 2012-U109.
The magnitudes graphs are made with Comet for Windows.

---------------------------------------------------------------------

Copyright(C) Seiichi Yoshida (comet@aerith.net). All rights reserved.